1501920000.9,3839,23.56,74498.0,21.15,-6.35,-6.93,0,*77
1501920002.13,3840,23.56,74498.5,21.15,-6.73,-7.27,0,*75
1501920003.31,3841,23.56,74498.8,21.13,-6.85,-7.15,0,*7A
1501920004.54,3842,23.56,74494.8,21.15,-5.77,-5.35,0,*71
1501920005.76,3843,23.56,74496.5,21.15,-4.37,-3.43,0,*72
1501920006.98,3844,23.56,74498.3,21.17,-2.75,-3.55,0,*70
1501920008.21,3845,23.56,74496.8,21.19,-4.05,-5.77,0,*78
1501920009.41,3846,23.56,74496.3,21.19,-5.43,-6.73,0,*7F
1501920010.64,3847,23.56,74496.8,21.19,-5.93,-6.85,0,*7A
1501920011.85,3848,23.56,74500.8,21.21,-5.69,-6.51,0,*72
1501920013.06,3849,23.56,74494.8,21.23,-6.81,-7.49,0,*7C
1501920014.28,3850,23.56,74494.5,21.21,-7.05,-7.69,0,*79
1501920015.48,3851,23.56,74494.0,21.21,-7.15,-7.69,0,*79
1501920016.66,3852,23.56,74496.0,21.21,-6.59,-7.15,0,*78
1501920017.9,3853,23.56,74492.0,21.23,-6.43,-6.93,0,*7F
1501920019.13,3854,23.56,74492.5,21.23,-6.47,-6.97,0,*78
1501920020.34,3855,23.56,74494.3,21.25,-5.89,-6.39,0,*7A
1501920021.59,3856,23.56,74496.8,21.27,-6.13,-6.63,0,*74
1501920022.78,3857,23.56,74496.0,21.25,-6.39,-6.77,0,*7A
1501920024.0,3858,23.56,74496.3,21.29,-4.65,-5.19,0,*79
1501920025.27,3859,23.56,74496.3,21.31,-5.69,-6.19,0,*7F
1501920026.52,3860,23.56,74496.5,21.29,-7.05,-7.57,0,*7F
1501920027.75,3861,23.56,74492.5,21.29,-7.43,-7.95,0,*72
1501920029.0,3862,23.56,74492.5,21.31,-7.23,-7.61,0,*75
1501920030.23,3863,23.56,74492.5,21.31,-6.35,-6.59,0,*78
1501920031.47,3864,23.56,74490.8,21.31,-5.39,-5.77,0,*7F
1501920032.75,3865,23.56,74488.5,21.35,-5.27,-5.61,0,*72
1501920033.96,3866,23.56,74488.0,21.37,-5.11,-5.47,0,*72
1501920035.19,3867,23.56,74490.0,21.41,-5.47,-5.85,0,*7F
1501920036.38,3868,23.56,74492.3,21.41,-6.09,-6.55,0,*77
1501920037.62,3869,23.56,74492.3,21.39,-7.69,-8.33,0,*70
1501920038.81,3870,23.56,74490.0,21.41,-8.97,-9.67,0,*79
1501920040.09,3871,23.56,74490.3,21.39,-8.51,-9.15,0,*78
1501920041.35,3872,23.56,74494.8,21.35,-7.99,-8.81,0,*70
1501920042.59,3873,23.56,74492.8,21.35,-6.69,-7.43,0,*7E
1501920043.83,3874,23.56,74494.3,21.35,-6.77,-7.69,0,*7E
1501920045.07,3875,23.56,74496.0,21.35,-6.85,-8.03,0,*71
1501920046.32,3876,23.56,74496.0,21.31,-6.09,-7.27,0,*7B
1501920047.57,3877,23.56,74498.0,21.31,-5.93,-7.11,0,*7F
1501920048.79,3878,23.56,74498.3,21.37,-5.23,-6.39,0,*76
1501920050.01,3879,23.56,74496.5,21.37,-5.07,-6.39,0,*71
1501920051.21,3880,23.56,74496.8,21.37,-6.05,-7.23,0,*7C
1501920052.4,3881,23.56,74498.5,21.37,-7.49,-8.93,0,*70
1501920053.63,3882,23.56,74496.0,21.35,-10.15,-11.45,0,*7D
1501920054.83,3883,23.63,74498.3,21.29,-8.89,-9.97,0,*7B
1501920056.04,3884,23.56,74492.0,21.29,-8.67,-9.83,0,*79
1501920057.29,3885,23.56,74492.3,21.27,-8.51,-9.67,0,*79
1501920058.49,3886,23.56,74494.0,21.25,-6.81,-7.83,0,*7F
1501920059.71,3887,23.56,74494.3,21.25,-6.81,-7.73,0,*71
1501920060.91,3888,23.56,74494.3,21.25,-7.83,-8.85,0,*7B
1501920062.09,3889,23.56,74492.8,21.25,-8.29,-9.31,0,*7B
1501920063.3,3890,23.56,74496.5,21.27,-7.49,-8.55,0,*7B
1501920064.52,3891,23.56,74496.8,21.27,-6.89,-7.87,0,*77
1501920065.74,3892,23.56,74496.5,21.25,-6.81,-7.57,0,*73
1501920066.96,3893,23.56,74494.3,21.25,-6.43,-7.31,0,*7C
1501920068.18,3894,23.56,74492.0,21.25,-6.31,-6.97,0,*73
1501920069.41,3895,23.56,74494.8,21.27,-6.13,-6.81,0,*77
1501920070.65,3896,23.56,74494.3,21.29,-5.85,-6.63,0,*7A
1501920071.93,3897,23.56,74492.3,21.31,-5.93,-6.63,0,*75
1501920073.14,3898,23.56,74492.0,21.35,-4.61,-5.35,0,*72
1501920074.34,3899,23.56,74488.8,21.37,-4.61,-5.47,0,*74
1501920075.56,3900,23.56,74488.5,21.37,-4.05,-4.73,0,*71
1501920076.78,3901,23.56,74490.3,21.43,-4.09,-4.65,0,*78
1501920078.0,3902,23.56,74494.0,21.45,-4.09,-4.85,0,*73
1501920079.19,3903,23.56,74494.8,21.49,-4.05,-4.65,0,*7C
1501920080.41,3904,23.56,74492.3,21.49,-4.13,-4.77,0,*7F
1501920081.62,3905,23.56,74492.8,21.53,-3.67,-4.37,0,*75
1501920082.88,3906,23.56,74492.0,21.57,-3.63,-4.21,0,*71
1501920084.11,3907,23.56,74494.3,21.61,-3.63,-4.17,0,*70
1501920085.36,3908,23.56,74492.8,21.65,-4.21,-4.73,0,*78
1501920086.55,3909,23.56,74494.5,21.67,-4.05,-4.65,0,*7A
1501920087.74,3910,23.56,74494.3,21.67,-3.15,-3.79,0,*7E
1501920089.01,3911,23.56,74496.5,21.69,-2.11,-2.75,0,*79
1501920090.2,3912,23.63,74496.3,21.71,-2.43,-3.87,0,*78
1501920091.39,3913,23.56,74498.3,21.71,-3.03,-4.99,0,*74
1501920092.61,3914,23.56,74498.0,21.71,-2.47,-4.61,0,*75
1501920093.88,3915,23.56,74496.0,21.69,-2.75,-4.73,0,*7F
1501920095.12,3916,23.56,74496.3,21.65,-3.95,-5.81,0,*73
1501920096.38,3917,23.56,74498.5,21.61,-3.75,-5.03,0,*72
1501920097.59,3918,23.56,74496.5,21.59,-2.75,-3.75,0,*70
1501920098.84,3919,23.56,74496.5,21.51,-1.67,-2.71,0,*7C
1501920100.11,3920,23.56,74496.3,21.51,-2.07,-2.63,0,*70
1501920101.35,3921,23.56,74500.5,21.49,-1.39,-1.13,0,*72
1501920102.6,3922,23.56,74500.8,21.47,0.33,0.59,0,*7B
1501920103.83,3923,23.56,74500.0,21.47,0.83,1.79,0,*42
1501920105.05,3924,23.56,74500.0,21.47,0.33,1.05,0,*45
1501920106.3,3925,23.56,74502.0,21.47,0.95,1.29,0,*46
1501920107.5,3926,23.56,74500.0,21.47,0.09,0.09,0,*73
1501920108.74,3927,23.56,74502.0,21.47,-0.19,-0.85,0,*77
1501920109.98,3928,23.56,74502.5,21.47,-0.89,-2.79,0,*40
1501920111.21,3929,23.56,74502.5,21.45,0.21,-2.71,0,*64
1501920112.43,3930,23.56,74502.0,21.45,-1.79,-5.85,0,*71
1501920113.68,3931,23.56,74504.5,21.43,-2.55,-7.11,0,*74
1501920114.9,3932,23.56,74506.8,21.39,-4.25,-9.27,0,*70
1501920116.12,3933,23.56,74502.0,21.37,-3.67,-8.85,0,*77
1501920117.37,3934,23.63,74506.3,21.35,-4.81,-10.01,0,*48
1501920118.6,3935,23.56,74500.8,21.29,-6.77,-11.93,0,*45
1501920119.85,3936,23.56,74502.5,21.25,-5.77,-10.63,0,*47
1501920121.06,3937,23.56,74502.0,21.23,-8.33,-13.43,0,*4C
1501920122.27,3938,23.56,74504.3,21.17,-7.35,-12.25,0,*4C
1501920123.48,3939,23.56,74500.3,21.13,-7.65,-12.25,0,*4C
1501920124.74,3940,23.63,74502.8,21.11,-7.27,-11.55,0,*42
1501920125.98,3941,23.63,74504.0,21.07,-7.43,-11.41,0,*43
1501920127.19,3942,23.63,74502.8,21.05,-5.11,-8.81,0,*73
1501920128.37,3943,23.56,74502.3,21.05,-4.57,-7.87,0,*78
1501920129.59,3944,23.63,74502.8,21.05,-4.85,-7.91,0,*77
1501920130.77,3945,23.56,74500.0,21.05,-6.73,-9.75,0,*79
1501920131.96,3946,23.56,74502.0,21.05,-5.81,-8.59,0,*7B
1501920133.19,3947,23.63,74502.8,21.05,-6.97,-9.49,0,*7E
1501920134.37,3948,23.63,74500.5,21.05,-6.59,-8.85,0,*72
1501920135.55,3949,23.63,74500.0,21.05,-6.59,-8.85,0,*73
1501920136.72,3950,23.56,74496.0,21.05,-6.55,-8.67,0,*7B
1501920137.98,3951,23.56,74498.5,21.07,-7.43,-9.37,0,*7A
1501920139.18,3952,23.63,74498.5,21.05,-7.53,-9.41,0,*7B
1501920140.4,3953,23.63,74502.5,21.05,-7.65,-9.41,0,*7F
1501920141.63,3954,23.56,74502.0,21.03,-7.87,-9.49,0,*7A
1501920142.84,3955,23.56,74504.0,21.05,-8.97,-10.63,0,*43
1501920144.06,3956,23.56,74504.3,21.01,-8.97,-10.41,0,*44
1501920145.27,3957,23.56,74506.8,21.01,-11.33,-13.07,0,*72
1501920146.49,3958,23.56,74500.3,20.97,-11.85,-13.51,0,*7D
1501920147.7,3959,23.56,74496.0,20.91,-10.45,-11.81,0,*78
1501920148.95,3960,23.56,74496.3,20.91,-10.67,-12.07,0,*7F
1501920150.19,3961,23.56,74490.5,20.85,-11.89,-13.43,0,*7B
1501920151.41,3962,23.56,74486.3,20.83,-11.23,-12.61,0,*7F
1501920152.64,3963,23.56,74486.3,20.79,-11.23,-12.53,0,*7A
1501920153.89,3964,23.56,74480.0,20.77,-10.75,-12.03,0,*74
1501920155.1,3965,23.56,74474.8,20.75,-10.53,-11.85,0,*7E
1501920156.35,3966,23.56,74484.8,20.73,-11.89,-12.97,0,*7D
1501920157.57,3967,23.63,74484.5,20.69,-11.15,-12.29,0,*77
1501920158.82,3968,23.63,74488.0,20.69,-10.49,-11.67,0,*79
1501920160.0,3969,23.56,74492.3,20.67,-9.93,-10.85,0,*44
1501920161.2,3970,23.63,74496.5,20.67,-9.19,-10.05,0,*46
1501920162.42,3971,23.56,74496.8,20.67,-9.15,-9.75,0,*74
1501920163.62,3972,23.63,74496.0,20.67,-10.27,-11.23,0,*74
1501920164.84,3973,23.56,74496.0,20.63,-9.11,-10.05,0,*49
1501920166.03,3974,23.63,74498.8,20.63,-8.21,-8.97,0,*7E
1501920167.26,3975,23.63,74502.3,20.67,-7.31,-8.03,0,*78
1501920168.49,3976,23.56,74500.3,20.69,-7.99,-8.93,0,*7E
1501920169.7,3977,23.56,74500.3,20.69,-8.41,-9.31,0,*7C
1501920170.91,3978,23.56,74496.5,20.69,-8.55,-9.31,0,*76
1501920172.15,3979,23.63,74502.5,20.69,-7.11,-7.99,0,*74
1501920173.36,3980,23.63,74504.0,20.71,-7.99,-8.89,0,*75
1501920174.6,3981,23.56,74500.0,20.73,-8.29,-9.11,0,*72
1501920175.81,3982,23.56,74500.0,20.73,-8.75,-9.67,0,*79
1501920177.02,3983,23.63,74500.8,20.73,-8.85,-9.71,0,*70
1501920178.21,3984,23.63,74504.8,20.75,-8.59,-9.27,0,*73
1501920179.41,3985,23.63,74506.8,20.73,-7.83,-8.55,0,*78
1501920180.64,3986,23.63,74504.8,20.75,-7.35,-8.03,0,*73
1501920181.83,3987,23.63,74508.0,20.75,-8.71,-9.67,0,*7E
1501920183.05,3988,23.56,74500.5,20.75,-9.53,-10.23,0,*48
1501920184.25,3989,23.63,74504.5,20.75,-8.03,-8.75,0,*77
1501920185.46,3990,23.56,74502.0,20.75,-7.69,-8.41,0,*7B
1501920186.7,3991,23.63,74500.3,20.75,-9.83,-10.63,0,*49
1501920187.93,3992,23.63,74500.3,20.73,-8.41,-9.15,0,*7A
1501920189.14,3993,23.63,74500.3,20.75,-8.33,-9.11,0,*7C
1501920190.32,3994,23.63,74502.3,20.75,-7.83,-8.45,0,*7F
1501920191.58,3995,23.63,74498.8,20.77,-7.35,-7.99,0,*7F
1501920192.79,3996,23.56,74496.0,20.79,-7.01,-7.53,0,*73
1501920194.03,3997,23.63,74502.3,20.79,-7.39,-8.07,0,*77
1501920195.26,3998,23.63,74500.5,20.79,-8.07,-8.81,0,*74
1501920196.46,3999,23.63,74502.5,20.81,-7.53,-8.17,0,*73
1501920197.67,4000,23.63,74500.3,20.83,-7.77,-8.45,0,*7E
1501920198.88,4001,23.63,74506.0,20.81,-8.97,-9.79,0,*72
1501920200.12,4002,23.63,74502.3,20.83,-9.11,-9.83,0,*79
1501920201.34,4003,23.63,74506.3,20.81,-10.23,-11.01,0,*70
1501920202.57,4004,23.56,74498.5,20.79,-10.97,-11.67,0,*7F
1501920203.81,4005,23.56,74502.5,20.77,-9.49,-10.27,0,*4E
1501920205.08,4006,23.56,74500.5,20.77,-8.51,-9.37,0,*7C
1501920206.28,4007,23.56,74498.0,20.75,-9.71,-10.35,0,*46
1501920207.47,4008,23.63,74494.5,20.75,-8.55,-9.27,0,*75
1501920208.7,4009,23.56,74494.3,20.75,-7.35,-7.95,0,*7A
1501920209.89,4010,23.63,74498.3,20.75,-8.45,-9.27,0,*7D
1501920211.16,4011,23.56,74484.8,20.73,-10.75,-11.51,0,*78
1501920212.4,4012,23.56,74484.8,20.71,-11.67,-12.65,0,*7F
1501920213.66,4013,23.63,74488.5,20.69,-11.93,-12.93,0,*75
1501920214.9,4014,23.63,74490.5,20.61,-11.37,-12.25,0,*79
1501920216.16,4015,23.63,74492.8,20.61,-10.93,-11.63,0,*76
1501920217.4,4016,23.63,74492.3,20.59,-10.41,-11.19,0,*7C
1501920218.65,4017,23.63,74492.5,20.59,-11.19,-11.93,0,*73
1501920219.89,4018,23.63,74496.0,20.55,-11.33,-12.25,0,*76
1501920221.12,4019,23.63,74498.0,20.53,-11.93,-12.89,0,*7D
1501920222.34,4020,23.63,74494.5,20.49,-11.15,-11.85,0,*7D
1501920223.54,4021,23.56,74486.5,20.49,-10.19,-10.89,0,*7C
1501920224.78,4022,23.63,74490.8,20.47,-10.89,-11.59,0,*74
1501920226.04,4023,23.63,74488.3,20.47,-10.31,-11.07,0,*7D
1501920227.26,4024,23.63,74488.5,20.47,-9.67,-10.31,0,*45
1501920228.5,4025,23.63,74490.8,20.47,-9.97,-10.63,0,*4C
1501920229.74,4026,23.63,74494.0,20.43,-9.05,-9.57,0,*7F
1501920230.96,4027,23.63,74492.8,20.45,-9.15,-9.67,0,*7A
1501920232.17,4028,23.63,74494.3,20.45,-9.61,-10.19,0,*47
1501920233.42,4029,23.63,74494.5,20.47,-9.41,-9.93,0,*7C
1501920234.63,4030,23.63,74494.5,20.45,-9.37,-9.93,0,*77
1501920235.87,4031,23.63,74498.8,20.43,-9.45,-9.97,0,*71
1501920237.07,4032,23.63,74498.3,20.43,-8.25,-8.63,0,*7F
1501920238.29,4033,23.56,74496.8,20.45,-8.45,-9.11,0,*7A
1501920239.49,4034,23.56,74498.0,20.45,-7.77,-8.33,0,*72
1501920240.67,4035,23.63,74498.5,20.49,-8.67,-9.23,0,*71
1501920241.91,4036,23.63,74500.0,20.49,-7.57,-7.99,0,*71
1501920243.14,4037,23.63,74498.3,20.51,-7.19,-7.69,0,*7C
1501920244.4,4038,23.63,74498.5,20.51,-7.57,-8.11,0,*79
1501920245.64,4039,23.63,74498.8,20.55,-8.45,-9.11,0,*71
1501920246.85,4040,23.56,74494.3,20.53,-8.11,-8.85,0,*74
1501920248.04,4041,23.63,74496.0,20.53,-8.75,-9.27,0,*7E
1501920249.26,4042,23.63,74500.8,20.53,-9.41,-10.27,0,*43
1501920250.53,4043,23.63,74498.3,20.51,-9.15,-9.83,0,*77
1501920251.76,4044,23.63,74496.3,20.53,-9.15,-10.01,0,*40
1501920252.97,4045,23.63,74496.8,20.51,-8.25,-9.05,0,*7D
1501920254.16,4046,23.63,74496.3,20.53,-8.71,-9.71,0,*7E
1501920255.41,4047,23.63,74496.3,20.51,-9.15,-10.01,0,*41
1501920256.63,4048,23.63,74496.0,20.51,-10.15,-11.11,0,*76
1501920257.9,4049,23.63,74496.8,20.47,-10.79,-11.73,0,*7E
1501920259.15,4050,23.63,74498.0,20.47,-9.49,-10.35,0,*4E
1501920260.39,4051,23.63,74496.5,20.45,-9.83,-10.75,0,*4F
1501920261.63,4052,23.63,74494.3,20.45,-11.33,-12.15,0,*7A
1501920262.91,4053,23.63,74496.8,20.43,-11.07,-11.89,0,*7C
1501920264.16,4054,23.63,74494.8,20.39,-11.37,-12.21,0,*74
1501920265.39,4055,23.63,74494.3,20.37,-10.97,-11.81,0,*79
1501920266.58,4056,23.63,74494.8,20.37,-9.05,-9.75,0,*7B
1501920267.82,4057,23.63,74498.8,20.35,-8.97,-9.61,0,*77
1501920269.06,4058,23.63,74492.8,20.35,-8.93,-9.41,0,*7E
1501920270.3,4059,23.63,74494.0,20.35,-8.97,-9.61,0,*79
1501920271.56,4060,23.63,74492.3,20.35,-8.81,-9.11,0,*73
1501920272.75,4061,23.63,74494.8,20.37,-8.17,-8.63,0,*7B
1501920273.99,4062,23.63,74492.8,20.39,-7.15,-7.31,0,*73
1501920275.25,4063,23.63,74488.3,20.43,-5.69,-5.81,0,*7F
1501920276.49,4064,23.63,74492.5,20.45,-5.81,-5.81,0,*78
1501920277.75,4065,23.63,74490.3,20.51,-5.61,-5.61,0,*7C
1501920278.99,4066,23.63,74494.5,20.51,-5.39,-5.27,0,*70
1501920280.21,4067,23.63,74492.5,20.53,-4.81,-4.77,0,*75
1501920281.48,4068,23.63,74494.3,20.59,-5.03,-5.27,0,*7F
1501920282.71,4069,23.63,74494.0,20.61,-6.59,-7.05,0,*7B
1501920283.93,4070,23.63,74490.8,20.67,-6.51,-6.93,0,*73
1501920285.14,4071,23.63,74492.3,20.67,-6.19,-6.43,0,*73
1501920286.36,4072,23.63,74492.8,20.67,-6.13,-6.63,0,*78
1501920287.6,4073,23.63,74494.3,20.71,-6.93,-7.31,0,*70
1501920288.81,4074,23.63,74492.5,20.71,-6.47,-6.93,0,*77
1501920290.02,4075,23.63,74494.0,20.73,-6.31,-6.73,0,*7B
1501920291.24,4076,23.63,74492.5,20.75,-5.93,-6.31,0,*73
1501920292.43,4077,23.63,74494.3,20.75,-6.01,-6.43,0,*7F
1501920293.62,4078,23.63,74496.3,20.79,-5.55,-5.97,0,*74
1501920294.85,4079,23.63,74496.0,20.79,-5.61,-6.23,0,*7E
1501920296.08,4080,23.63,74492.0,20.83,-5.27,-5.89,0,*7C
1501920297.28,4081,23.63,74494.5,20.83,-4.77,-5.43,0,*7F
1501920298.54,4082,23.63,74494.3,20.89,-5.07,-5.69,0,*78
1501920299.74,4083,23.63,74494.5,20.91,-5.73,-6.39,0,*75
1501920300.95,4084,23.63,74494.5,20.93,-5.31,-5.97,0,*71
1501920302.16,4085,23.63,74494.8,20.93,-5.77,-6.31,0,*7D
1501920303.43,4086,23.63,74494.3,20.95,-5.03,-5.61,0,*7D
1501920304.63,4087,23.63,74494.5,20.97,-4.45,-5.23,0,*7B
1501920305.84,4088,23.63,74498.3,20.99,-4.09,-4.57,0,*70
1501920307.08,4089,23.63,74498.3,21.03,-3.59,-3.83,0,*7F
1501920308.3,4090,23.63,74496.3,21.07,-3.27,-3.55,0,*71
1501920309.51,4091,23.63,74498.5,21.11,-5.97,-6.39,0,*75
1501920310.71,4092,23.63,74498.5,21.13,-6.27,-6.43,0,*71
1501920311.89,4093,23.63,74502.5,21.13,-6.35,-6.55,0,*74
1501920313.13,4094,23.63,74502.0,21.13,-5.81,-5.89,0,*7D
1501920314.36,4095,23.63,74500.0,21.13,-5.65,-5.69,0,*78
1501920315.56,4096,23.63,74496.8,21.15,-5.47,-5.39,0,*78
1501920316.8,4097,23.63,74496.3,21.17,-5.07,-5.07,0,*72
1501920318.01,4098,23.63,74500.8,21.19,-6.73,-6.51,0,*73
1501920319.21,4099,23.63,74496.8,21.21,-5.81,-5.43,0,*77
1501920320.43,4100,23.63,74500.8,21.19,-5.55,-5.43,0,*74
1501920321.66,4101,23.63,74496.8,21.23,-6.19,-6.13,0,*71
1501920322.86,4102,23.63,74498.5,21.21,-7.95,-7.83,0,*7D
1501920324.1,4103,23.63,74498.3,21.21,-5.69,-5.61,0,*73
1501920325.35,4104,23.63,74500.5,21.23,-4.73,-4.77,0,*7A
1501920326.56,4105,23.63,74498.5,21.23,-3.87,-4.09,0,*7E
1501920327.78,4106,23.63,74496.3,21.25,-5.97,-6.27,0,*72
1501920328.99,4107,23.63,74492.8,21.25,-7.69,-8.25,0,*7C
1501920330.24,4108,23.63,74490.8,21.25,-6.93,-7.35,0,*79
1501920331.47,4109,23.63,74496.0,21.23,-6.85,-7.39,0,*75
1501920332.73,4110,23.63,74492.0,21.23,-6.93,-7.39,0,*7A
1501920333.93,4111,23.63,74494.3,21.21,-6.85,-7.31,0,*76
1501920335.13,4112,23.63,74494.8,21.21,-8.33,-9.15,0,*7E
1501920336.36,4113,23.63,74490.5,21.23,-10.05,-10.79,0,*73
1501920337.59,4114,23.63,74488.3,21.17,-11.23,-11.93,0,*73
1501920338.77,4115,23.63,74494.5,21.13,-10.57,-11.15,0,*7A
1501920339.99,4116,23.63,74492.5,21.11,-9.71,-10.23,0,*43
1501920341.22,4117,23.63,74494.0,21.07,-9.19,-9.49,0,*7F
1501920342.45,4118,23.63,74496.8,21.07,-5.97,-6.27,0,*7D
1501920343.69,4119,23.63,74498.8,21.11,-4.61,-4.93,0,*7E
1501920344.92,4120,23.63,74494.5,21.15,-5.23,-5.39,0,*76
1501920346.14,4121,23.63,74494.3,21.17,-4.81,-4.93,0,*7D
1501920347.39,4122,23.63,74498.0,21.19,-4.81,-4.93,0,*70
1501920348.62,4123,23.63,74498.5,21.21,-4.93,-5.07,0,*75
1501920349.85,4124,23.63,74500.5,21.23,-4.99,-5.23,0,*7C
1501920351.1,4125,23.63,74498.3,21.27,-7.11,-7.35,0,*7F
1501920352.31,4126,23.63,74492.5,21.25,-8.67,-8.81,0,*70
1501920353.53,4127,23.63,74492.3,21.23,-10.53,-10.53,0,*7F
1501920354.7,4128,23.63,74490.8,21.21,-8.63,-8.71,0,*71
1501920355.94,4129,23.63,74494.3,21.21,-9.15,-9.15,0,*73
1501920357.11,4130,23.63,74492.5,21.21,-8.25,-8.33,0,*7C
1501920358.29,4131,23.63,74492.3,21.17,-9.23,-9.23,0,*7F
1501920359.49,4132,23.63,74494.0,21.17,-7.61,-7.49,0,*76
1501920360.7,4133,23.63,74494.5,21.19,-8.63,-8.59,0,*7A
1501920361.94,4134,23.63,74494.3,21.17,-10.71,-10.75,0,*7E
1501920363.14,4135,23.63,74494.3,21.13,-12.25,-12.25,0,*7F
1501920364.4,4136,23.63,74488.5,21.07,-11.59,-11.51,0,*71
1501920365.62,4137,23.63,74492.3,21.03,-10.57,-10.57,0,*7C
1501920366.87,4138,23.63,74488.0,20.99,-10.85,-10.67,0,*7D
1501920368.09,4139,23.63,74490.8,20.97,-10.63,-10.49,0,*76
1501920369.31,4140,23.63,74494.8,20.97,-10.85,-10.71,0,*7B
1501920370.53,4141,23.63,74490.3,20.93,-11.07,-10.97,0,*7D
1501920371.77,4142,23.63,74498.3,20.91,-12.11,-11.81,0,*7E
1501920372.97,4143,23.63,74494.5,20.91,-9.89,-9.57,0,*76
1501920374.19,4144,23.63,74496.8,20.89,-9.61,-9.31,0,*7E
1501920375.39,4145,23.63,74492.8,20.85,-8.85,-8.55,0,*7B
1501920376.62,4146,23.63,74498.5,20.85,-10.35,-10.19,0,*7B
1501920377.86,4147,23.63,74494.0,20.83,-11.59,-11.33,0,*7E
1501920379.08,4148,23.63,74496.5,20.81,-9.01,-8.45,0,*7E
1501920380.32,4149,23.63,74498.5,20.83,-8.07,-7.77,0,*74
1501920381.56,4150,23.63,74496.0,20.81,-10.19,-9.83,0,*4D
1501920382.77,4151,23.63,74496.8,20.79,-10.09,-9.83,0,*4A
1501920384.0,4152,23.63,74496.8,20.77,-9.75,-9.37,0,*7B
1501920385.25,4153,23.63,74498.5,20.77,-10.75,-10.49,0,*73
1501920386.5,4154,23.63,74496.3,20.75,-12.07,-11.73,0,*79
1501920387.72,4155,23.63,74496.0,20.73,-10.53,-10.19,0,*70
1501920388.93,4156,23.63,74496.3,20.73,-9.67,-9.27,0,*79
1501920390.15,4157,23.63,74500.3,20.69,-11.23,-10.85,0,*7A
1501920391.4,4158,23.63,74496.8,20.69,-10.89,-10.41,0,*7C
1501920392.62,4159,23.63,74500.5,20.63,-10.45,-9.83,0,*41
1501920393.81,4160,23.63,74498.8,20.63,-10.49,-9.97,0,*42
1501920395.04,4161,23.63,74498.3,20.63,-10.79,-10.19,0,*7E
1501920396.29,4162,23.63,74492.8,20.59,-12.21,-11.77,0,*72
1501920397.51,4163,23.63,74498.5,20.57,-12.11,-11.45,0,*7F
1501920398.74,4164,23.63,74498.5,20.55,-10.45,-9.83,0,*4A
1501920399.97,4165,23.63,74494.0,20.53,-10.71,-10.15,0,*7D
1501920401.17,4166,23.63,74492.8,20.51,-9.89,-9.27,0,*7A
1501920402.4,4167,23.63,74498.5,20.51,-7.31,-6.73,0,*78
1501920403.63,4168,23.63,74496.8,20.51,-7.39,-6.73,0,*7F
1501920404.81,4169,23.63,74500.3,20.53,-9.67,-9.01,0,*73
1501920406.03,4170,23.63,74496.0,20.53,-10.41,-9.75,0,*44
1501920407.24,4171,23.63,74502.0,20.51,-9.05,-8.45,0,*7D
1501920408.45,4172,23.63,74496.8,20.53,-7.31,-6.59,0,*76
1501920409.7,4173,23.63,74494.5,20.55,-8.81,-7.95,0,*74
1501920410.94,4174,23.63,74494.3,20.55,-8.07,-7.49,0,*7C
1501920412.2,4175,23.63,74498.5,20.55,-7.65,-6.97,0,*74
1501920413.44,4176,23.63,74496.8,20.55,-9.11,-8.75,0,*78
1501920414.68,4177,23.63,74498.8,20.53,-11.51,-10.79,0,*77
1501920415.91,4178,23.63,74498.0,20.51,-10.97,-10.23,0,*7E
1501920417.12,4179,23.63,74498.0,20.51,-9.57,-8.75,0,*71
1501920418.34,4180,23.63,74500.3,20.49,-8.85,-7.91,0,*75
1501920419.56,4181,23.63,74498.5,20.49,-9.61,-8.81,0,*71
1501920420.74,4182,23.63,74498.8,20.49,-9.19,-8.29,0,*7F
1501920421.96,4183,23.63,74502.5,20.47,-8.67,-7.83,0,*77
1501920423.15,4184,23.63,74496.8,20.49,-10.15,-9.31,0,*45
1501920424.37,4185,23.63,74494.5,20.47,-10.93,-10.05,0,*7B
1501920425.62,4186,23.63,74498.5,20.43,-11.77,-10.93,0,*78
1501920426.84,4187,23.63,74498.5,20.43,-10.93,-10.09,0,*71
1501920428.08,4188,23.63,74496.3,20.39,-9.83,-8.89,0,*7B
1501920429.27,4189,23.63,74492.8,20.37,-10.57,-9.71,0,*43
1501920430.52,4190,23.63,74490.3,20.35,-10.19,-9.41,0,*40
1501920431.75,4191,23.63,74494.3,20.35,-9.49,-8.67,0,*79
1501920433.01,4192,23.63,74498.5,20.31,-11.07,-10.23,0,*74
1501920434.24,4193,23.63,74498.5,20.31,-10.53,-9.57,0,*4E
1501920435.47,4194,23.63,74502.0,20.29,-10.67,-9.75,0,*47
1501920436.65,4195,23.63,74496.8,20.27,-9.89,-8.85,0,*7E
1501920437.85,4196,23.63,74500.3,20.27,-9.61,-8.59,0,*7A
1501920439.06,4197,23.63,74498.3,20.27,-10.45,-9.37,0,*4C
1501920440.27,4198,23.63,74492.8,20.25,-9.79,-8.75,0,*71
1501920441.51,4199,23.63,74486.0,20.25,-10.75,-9.79,0,*49
1501920442.74,4200,23.63,74494.8,20.21,-11.11,-10.19,0,*73
1501920443.97,4201,23.63,74494.8,20.21,-10.45,-9.49,0,*4F
1501920445.19,4202,23.63,74498.5,20.17,-10.97,-9.89,0,*4A
1501920446.44,4203,23.63,74496.3,20.17,-8.03,-7.05,0,*75
1501920447.68,4204,23.63,74502.3,20.17,-7.99,-6.77,0,*7A
1501920448.92,4205,23.63,74494.5,20.17,-9.37,-8.41,0,*7A
1501920450.13,4206,23.63,74490.8,20.17,-10.31,-9.23,0,*42
1501920451.35,4207,23.63,74494.5,20.15,-11.01,-10.15,0,*7E
1501920452.57,4208,23.63,74494.8,20.11,-11.55,-10.53,0,*76
1501920453.82,4209,23.63,74496.3,20.11,-12.79,-11.89,0,*7C
1501920455.02,4210,23.63,74498.5,20.07,-12.25,-11.23,0,*7A
1501920456.3,4211,23.63,74488.3,20.05,-12.75,-11.55,0,*7D
1501920457.55,4212,23.63,74490.3,19.99,-12.57,-11.55,0,*71
1501920458.75,4213,23.63,74490.5,19.95,-11.01,-9.93,0,*4F
1501920460.03,4214,23.63,74488.0,19.93,-11.63,-10.63,0,*7D
1501920461.26,4215,23.63,74490.8,19.93,-11.41,-10.35,0,*7F
1501920462.51,4216,23.63,74492.0,19.89,-10.57,-9.45,0,*4E
1501920463.75,4217,23.63,74498.3,19.89,-10.15,-9.11,0,*48
1501920464.99,4218,23.63,74498.0,19.89,-9.37,-8.41,0,*7B
1501920466.2,4219,23.63,74498.0,19.89,-9.89,-8.85,0,*77
1501920467.38,4220,23.63,74492.5,19.87,-10.45,-9.31,0,*45
1501920468.57,4221,23.63,74488.8,19.87,-12.39,-11.01,0,*77
1501920469.82,4222,23.63,74486.5,19.81,-14.79,-13.93,0,*79
1501920471.08,4223,23.63,74488.8,19.77,-12.71,-11.77,0,*77
1501920472.34,4224,23.63,74496.3,19.77,-11.07,-10.19,0,*7B
1501920473.52,4225,23.63,74496.0,19.75,-9.27,-8.29,0,*79
1501920474.74,4226,23.63,74496.0,19.75,-8.11,-7.19,0,*72
1501920475.95,4227,23.63,74494.0,19.75,-9.11,-8.21,0,*76
1501920477.16,4228,23.63,74498.3,19.75,-8.33,-7.39,0,*7E
1501920478.37,4229,23.63,74494.3,19.77,-9.27,-8.29,0,*77
1501920479.64,4230,23.63,74492.8,19.77,-11.59,-10.79,0,*73
1501920480.89,4231,23.63,74492.0,19.75,-12.75,-11.77,0,*72
1501920482.1,4232,23.63,74492.3,19.71,-11.73,-10.85,0,*7C
1501920483.33,4233,23.63,74494.8,19.67,-11.59,-10.93,0,*75
1501920484.54,4234,23.63,74492.8,19.63,-13.15,-12.47,0,*77
1501920485.81,4235,23.63,74488.3,19.59,-12.65,-11.85,0,*74
1501920487.07,4236,23.63,74494.3,19.55,-12.29,-11.63,0,*7B
1501920488.31,4237,23.63,74492.0,19.55,-12.43,-11.85,0,*7E
1501920489.53,4238,23.63,74490.3,19.49,-11.81,-11.15,0,*78
1501920490.77,4239,23.63,74490.8,19.47,-9.41,-8.93,0,*74
1501920492.0,4240,23.63,74492.5,19.47,-9.67,-9.11,0,*75
1501920493.22,4241,23.63,74490.8,19.47,-10.89,-10.45,0,*75
1501920494.43,4242,23.63,74492.5,19.45,-10.89,-10.35,0,*73
1501920495.68,4243,23.63,74492.5,19.45,-11.07,-10.63,0,*76
1501920496.88,4244,23.63,74498.8,19.45,-10.35,-9.79,0,*42
1501920498.13,4245,23.63,74496.5,19.43,-10.31,-9.83,0,*44
1501920499.32,4246,23.63,74496.5,19.41,-11.19,-10.85,0,*70
1501920500.55,4247,23.63,74496.0,19.41,-10.79,-10.27,0,*7E
1501920501.78,4248,23.63,74494.3,19.39,-10.45,-10.01,0,*75
1501920502.98,4249,23.63,74500.3,19.37,-11.41,-11.01,0,*7E
1501920504.2,4250,23.63,74498.0,19.37,-9.75,-9.45,0,*71
1501920505.42,4251,23.63,74492.8,19.35,-8.71,-8.45,0,*76
1501920506.63,4252,23.63,74498.3,19.35,-8.55,-8.29,0,*79
1501920507.87,4253,23.63,74496.3,19.35,-8.33,-8.07,0,*74
1501920509.11,4254,23.63,74494.0,19.35,-8.17,-8.07,0,*75
1501920510.32,4255,23.63,74496.3,19.35,-9.27,-9.23,0,*71